Location: Putah Creek Observatory
(38.7021°N, 122.3865°W)
Time: 22:28:17
(UTC-07:00)

Daily predictions for brighter satellites

Satellite Brightness Start Highest point End
(mag) Time Altitude Azimuth Time Altitude Azimuth Time Altitude Azimuth
Meteor 1-18 Rocket 4.5 20:11:29 10° N 20:17:27 86° W 20:23:23 10° S
Cosmos 44 Rocket 3.3 20:13:22 10° NNW 20:18:08 89° ENE 20:22:58 10° SSE
Cosmos 1954 Rocket 4.1 20:15:57 10° NNW 20:21:15 67° ENE 20:26:32 10° SSE
DELTA 2 R/B (1) 4.0 20:19:33 10° W 20:25:01 56° SSW 20:30:30 10° SE
Okean 1 3.3 20:24:38 10° N 20:28:38 89° E 20:32:37 10° S
Cosmos 1536 Rocket 4.1 20:27:37 10° N 20:31:40 37° ENE 20:35:42 10° SSE
Cosmos 1939 Rocket 4.1 20:30:16 10° SE 20:33:30 24° ENE 20:36:43 10° NNE
Cosmos 1536 3.8 20:30:03 10° SSE 20:33:32 28° E 20:37:02 10° NNE
Lacrosse 5 rocket 1.7 20:30:42 10° NW 20:34:17 53° SW 20:38:03 10° SSE
Meteor 1-19 Rocket 4.5 20:28:58 10° N 20:34:43 55° ENE 20:40:22 10° SSE
Cosmos 2360 Rocket 3.2 20:31:04 10° SSE 20:35:29 24° E 20:39:52 10° NE
ATLAS 3B R/B 4.0 20:30:28 10° NNW 20:35:47 24° NE 20:40:57 10° E
Cosmos 1980 Rocket 3.7 20:31:08 10° SW 20:36:25 42° WNW 20:41:43 10° N
Cosmos 1741 Rocket 4.5 20:34:53 10° N 20:39:53 43° ENE 20:44:53 10° SE
Envisat 3.3 20:35:42 10° SE 20:40:35 50° ENE 20:45:29 10° N
USA 267 3.6 20:40:19 10° SE 20:46:50 68° SW 20:53:23 10° NW
CZ-2D R/B 3.4 20:43:43 10° S 20:47:34 76° WSW 20:51:26 10° NNW
NOSS 2-3 (D) 3.7 20:43:03 10° SSW 20:47:38 71° ESE 20:52:51 10° NE
Cosmos 44 4.1 20:47:31 10° NW 20:51:46 45° WSW 20:56:10 10° S
EXPRESS MD2 4.4 20:50:36 10° W 20:52:54 32° NNW 20:56:29 10° NE
USA 186 2.0 20:55:36 10° S 20:58:56 75° W 21:02:20 10° NNW
Meteor 2-4 Rocket 3.7 20:55:51 10° N 21:01:25 65° E 21:07:07 10° SSE
Delta 2 Rocket 3.9 20:59:45 10° SW 21:03:31 41° SSE 21:05:56 21° ESE
Helios 1B rocket 3.0 21:04:07 10° NNE 21:07:53 34° E 21:10:18 19° SSE
Cosmos 1110 Rocket 4.2 21:04:07 10° S 21:08:58 44° ESE 21:13:52 10° NNE
Resurs 1-3 4.3 21:05:45 10° S 21:10:02 55° W 21:14:22 10° NNW
ATLAS 2AS CENTAUR R/B 3.0 21:06:11 10° SSW 21:13:47 80° ESE 21:21:55 10° NE
Lacrosse 5 1.9 21:11:06 10° SW 21:16:11 84° NW 21:21:17 10° NE
Cosmos 1850 Rocket 4.2 21:16:10 10° NNW 21:21:30 75° WSW 21:25:55 15° S
Cosmos 1331 Rocket 4.1 21:16:55 10° S 21:21:55 52° ESE 21:26:59 10° NNE
Cosmos 883 Rocket 4.4 21:19:34 10° N 21:25:43 74° E 21:30:38 17° SSE
SeaSat 1 2.7 21:23:01 10° NNE 21:27:56 71° WNW 21:32:49 10° SW
Tiangong 1 0.6 21:25:56 10° WNW 21:28:43 90° WSW 21:28:44 89° SE
BREEZE-M DEB (TANK) 4.0 21:27:33 10° W 21:30:01 20° NNW 21:31:42 10° NNE
Atlas Centaur 2 3.6 21:23:07 10° W 21:30:37 38° SSW 21:34:07 25° SSE
Okean 1 Rocket 3.0 21:26:45 10° S 21:31:05 86° W 21:35:29 10° N
GPS 2-05 Rocket1 3.7 21:28:36 10° W 21:31:40 32° SSW 21:31:45 32° SSW
Cosmos 1300 Rocket 4.3 21:27:35 10° SSW 21:31:47 53° W 21:36:01 10° N
Cosmos 220 Rocket 3.9 21:27:55 10° NNW 21:32:14 77° ENE 21:33:55 37° SSE
YAOGAN 6 2.4 21:31:07 35° S 21:32:29 86° WSW 21:36:02 10° NNW
ARGOS 3.9 21:31:25 29° E 21:32:55 34° ENE 21:37:41 10° N
Cosmos 1025 Rocket 3.0 21:31:39 10° N 21:35:53 62° E 21:37:03 43° SE
Okean 2 3.5 21:32:26 10° N 21:36:26 52° E 21:37:03 47° ESE
Cosmos 1607 4.0 21:36:42 10° NNW 21:43:12 81° WSW 21:46:36 30° SSE
Cosmos 2263 Rocket 2.6 21:38:16 10° NNW 21:43:54 62° WSW 21:47:25 23° S
Resurs 01 Rocket 4.1 21:43:16 10° SW 21:46:34 20° W 21:49:54 10° NW
Okean 1-7 Rocket 3.5 21:42:06 10° N 21:46:37 79° E 21:47:54 47° SSE
Cosmos 2322 Rocket 4.0 21:41:36 10° WSW 21:46:43 33° WNW 21:51:51 10° N
Cosmos 2278 Rocket 4.2 21:44:42 10° NNE 21:47:16 13° NE 21:48:29 12° ENE
Cosmos 1515 3.7 21:44:16 10° N 21:47:54 59° ENE 21:47:54 59° ENE
Spot 1 4.4 21:46:35 32° SSE 21:49:03 86° WSW 21:54:08 10° NNW
Cosmos 1818 3.8 21:50:29 44° ESE 21:50:29 44° ESE 21:55:25 10° NE
Cosmos 1844 Rocket 3.6 21:45:45 10° N 21:50:51 32° ENE 21:51:49 30° E
Cosmos 1975 3.9 21:52:10 30° NE 21:52:10 30° NE 21:54:38 10° NNE
SPOT 1/Viking Rocket 4.5 21:51:20 30° ENE 21:51:41 30° ENE 21:56:11 10° N
Cosmos 2237 4.1 21:47:31 10° SSW 21:53:09 71° ESE 21:58:50 10° NNE
Terra 3.8 21:55:49 15° NE 21:55:49 15° NE 21:57:49 10° NNE
Helios 1A 3.6 21:54:43 32° SSW 21:56:24 54° W 22:00:35 10° NNW
SL-16 R/B 4.3 21:54:24 10° WSW 21:59:08 27° WNW 22:03:54 10° N
Meteor 1-29 3.4 21:58:02 10° N 22:01:24 57° WNW 22:01:33 57° W
Cosmos 1500 3.3 22:01:57 66° NNE 22:01:57 66° NNE 22:05:21 10° N
MetOp-B 4.0 22:00:52 52° SE 22:02:09 74° ENE 22:07:30 10° N
Cosmos 2219 Rocket 3.4 22:06:05 26° ENE 22:06:05 26° ENE 22:09:03 10° NE
USA 245 3.9 22:05:52 58° ENE 22:05:54 58° ENE 22:10:10 10° N
ERS-1 Rocket 2.9 22:06:41 54° S 22:07:52 82° WSW 22:12:55 10° NNW
Cosmos 2315 Rocket 4.2 22:03:30 10° NNW 22:09:43 68° W 22:13:09 28° SSW
Meteor 1-12 Rocket 4.1 22:09:22 59° SE 22:10:00 63° E 22:15:35 10° NNE
Cosmos 2322 4.1 22:04:40 10° SSW 22:10:16 64° WNW 22:15:55 10° NNE
USA 238 DEB 3.7 22:05:42 10° NNW 22:12:50 77° NE 22:14:51 50° SE
USA 238 3.7 22:05:48 10° NNW 22:12:56 76° NE 22:14:57 50° SE
Cosmos 2360 Rocket 3.3 22:13:47 10° SW 22:19:08 44° WNW 22:24:31 10° N
COSMOS 2428 2.6 22:19:31 47° SSW 22:21:16 85° ESE 22:27:01 10° NNE
Cosmos 1892 Rocket 3.8 22:20:59 10° N 22:24:48 65° NNW 22:24:48 65° NNW
ATLAS 3B R/B 2.6 22:20:30 10° NW 22:27:10 76° WSW 22:28:26 59° S
H-2A R/B 2.0 22:29:40 69° NE 22:29:40 69° NE 22:34:14 10° N
Cosmos 1844 4.0 22:24:17 10° NNW 22:29:39 51° ENE 22:29:39 51° ENE
Cosmos 1745 Rocket 3.8 22:30:27 70° ESE 22:30:39 71° E 22:36:46 10° NNE
Cosmos 1238 Rocket 4.1 22:25:49 10° N 22:32:31 76° W 22:33:57 55° SSW
Cosmos 2333 Rocket 3.4 22:36:58 30° NE 22:36:58 30° NE 22:39:56 10° NNE
Cosmos 1544 Rocket 4.3 22:38:34 52° NNW 22:38:34 52° NNW 22:42:10 10° N
Cosmos 2333 4.3 22:40:26 54° SW 22:41:37 71° WNW 22:47:15 10° NNE
Cosmos 1486 Rocket 4.3 22:42:04 10° NNW 22:46:51 61° W 22:46:51 61° W
NOSS 3-2 (C) 4.1 22:42:18 10° NNW 22:49:47 60° NE 22:50:54 55° E
Cosmos 1455 Rocket 4.2 22:51:15 41° NNW 22:51:15 41° NNW 22:54:30 10° N
Cosmos 2237 Rocket 3.9 22:54:11 21° NE 22:54:11 21° NE 22:56:07 10° NE
SPOT 5 3.6 22:52:06 49° WNW 22:52:06 49° WNW 22:56:02 10° NNW
Cosmos 1386 Rocket 4.4 22:54:43 78° NNE 22:54:43 78° NNE 23:00:36 10° N
Lacrosse 5 4.4 22:56:10 10° WNW 22:59:50 19° NNW 23:03:29 10° NNE
NOSS 3-4 (A) 3.7 23:16:06 65° N 23:16:06 65° N 23:21:49 10° NNE
NOSS 3-4 (C) 3.7 23:16:18 64° N 23:16:18 64° N 23:21:55 10° NNE
CENTAUR R/B 3.8 23:09:12 10° NNW 23:16:32 40° NE 23:17:39 38° ENE
Nadezhda 1 Rocket 4.5 23:16:28 10° NNW 23:22:24 55° W 23:22:24 55° W
BREEZE-M (TANK) 4.4 23:21:44 10° NW 23:27:53 40° NW 23:27:53 40° NW
Cosmos 2278 Rocket 3.2 23:26:31 10° NNW 23:30:19 44° NNW 23:30:19 44° NNW
Terra 3.6 23:34:42 29° NNW 23:34:42 29° NNW 23:37:07 10° NNW
Cosmos 1844 Rocket 4.1 23:29:37 10° NW 23:33:29 31° W 23:33:29 31° W
Cosmos 2219 Rocket 3.7 23:47:43 31° WNW 23:47:53 31° WNW 23:52:54 10° N
